星链-11386 (STARLINK-11386)

导读

STARLINK-11386是美国SpaceX公司星链(Starlink)星座的第二代卫星,于2024年11月25日发射入轨,属于星链全球卫星互联网组网的组成部分。 星链项目旨在为全球偏远地区、海洋和极地等传统网络覆盖盲区提供低延迟高速宽带服务,STARLINK-11386配备星间激光通信终端,可实现高速太空互联,支撑全球无缝覆盖的卫星互联网服务,是星链大规模星座部署中的一环,助力扩展星座服务覆盖与容量。

基本信息
目录编号:
62098
目录名称:
STARLINK-11386
国际标识:
2024-220L
轨道中心:
EARTH
卫星名称:
星链-11386
卫星全名:
星链-11386 (STARLINK-11386)
卫星状态:
在轨 (已飞行562 天)
发射日期:
2024-11-25 UTC
国别 :
美国 (US)
星等 :
--
轨道信息
数据来源 国际轨道数据
星历时间: 2026-06-09T18:00:25+0800
1天前
查看轨道信息
半长轴: 6734.586km
偏心率: 0.0001125
轨道倾角: 42.998°
近地点辐角 275.643°
升交点赤经 209.801°
平近点角 84.431°
近地点: 355.691km
远地点: 357.207km
周期: 91.670分钟
每日圈数: 15.708563
详细信息
固有亮度:
5
最大亮度:
2.5
卫星平台:
Starlink V1.0
覆盖范围:
全球
运营商:
太空探索技术公司
运营商所在国:
美国
制造商(研发单位):
太空探索技术公司
制造商所在国:
美国
使用方式:
暂无
卫星简介
Starlink 计划是 SpaceX 推出的全球卫星互联网项目,通过发射低轨道卫星,为全球尤其是偏远地区提供高速、低延迟的互联网服务。自 2019 年起,Starlink 已部署数千颗卫星,旨在缩小全球数字鸿沟,推动互联网普及。该项目还为军事、航空等行业提供通信支持,带来广泛经济效益。
2D轨道图
3D轨道图
轨道高度分析图
轨道倾角分析图
轨道综合分析图
查看轨道综合分析图